#timestamp,LO_Frequency,Hit,StdDev 
1711321215.8,286046999.1,N
1711321235.6,286046996.6,N
1711321255.5,286046997.0,N
1711321275.3,286046991.7,N
1711321295.2,286046992.2,N
1711321315.9,286046994.7,N
1711321335.7,286046995.2,N
1711321355.6,286047002.9,N
1711321375.4,286047002.6,N
1711321395.2,286047004.4,N
1711321415.1,286047002.9,N
1711321416.0,286047002.9,N
1711321435.8,286047002.4,N
1711321455.7,286046998.2,N
1711321475.5,286046998.3,N
1711321495.3,286046998.5,N
1711321515.2,286046997.9,N
1711321535.0,286046996.2,N
1711321535.9,286046996.2,N
1711321555.8,286046997.5,N
1711321575.6,286046995.5,N
1711321595.4,286046999.5,N
1711321615.3,286046997.3,N
1711321635.1,286047000.4,N
1711321655.8,286047003.2,N
1711321675.7,286047004.8,N
1711321695.5,286047010.3,N
1711321715.3,286047007.8,N
1711321735.2,286047007.6,N
1711321755.0,286047001.9,N
1711321755.9,286047001.9,N
1711321775.8,286047002.3,N
1711321795.6,286047002.0,N
1711321815.4,286047005.0,N
1711321835.3,286047004.5,N
1711321855.1,286047005.7,N
1711321875.8,286047003.7,N
1711321895.7,286047004.0,N
1711321915.5,286047006.7,N
1711321935.4,286047004.6,N
1711321955.2,286047008.5,N
1711321975.0,286047006.2,N
1711321975.9,286047006.2,N
1711321995.8,286047005.5,N
1711322015.6,286047003.8,N
1711322035.4,286047004.1,N
1711322055.3,286047001.9,N
1711322075.1,286047001.6,N
1711322095.9,286047001.1,N
1711322115.7,286046996.9,N
1711322135.5,286046998.4,N
1711322155.4,286047000.3,N
1711322175.2,286047001.9,N
1711322195.1,286047002.0,N
1711322196.0,286047002.0,N
1711322215.8,286047003.1,N
1711322235.6,286047005.6,N
1711322255.5,286047001.5,N
1711322275.3,286047004.2,N
1711322295.1,286047003.1,N
1711322315.9,286047008.4,Y
1711322335.7,286047007.3,P
1711322355.6,286047009.9,P
1711322375.4,286047010.9,P
1711322395.2,286047011.2,Y
1711322415.1,286047003.9,P
1711322416.0,286047003.9,N
1711322435.8,286047000.8,N
1711322455.7,286046999.5,N
1711322475.5,286046998.5,N
1711322495.3,286046998.2,N
1711322515.2,286046999.6,N
1711322535.0,286046996.5,N
1711322535.9,286046996.5,N
1711322555.7,286046995.1,N
1711322575.6,286046993.4,N
1711322595.4,286046994.1,N
1711322615.3,286046996.8,N
1711322635.1,286047002.6,N
1711322636.0,286047002.6,N
1711322655.8,286047001.9,N
1711322675.7,286047002.0,N
1711322695.5,286047001.3,N
1711322715.4,286047005.7,N
1711322735.2,286047001.4,N
1711322755.0,286047000.4,N
1711322755.9,286047000.4,N
1711322775.8,286047002.4,N
1711322795.6,286047002.8,N
1711322815.4,286047004.4,N
1711322835.3,286047003.6,N
1711322855.1,286047005.0,N
1711322875.9,286047009.1,N
1711322895.7,286047006.6,N
1711322915.5,286047006.8,N
1711322935.4,286047004.4,N
1711322955.2,286047001.7,N
1711322975.0,286047006.4,N
1711322975.9,286047006.4,N
1711322995.8,286047005.1,N
1711323015.6,286047003.7,N
1711323035.5,286047001.7,N
1711323055.3,286047005.9,N
1711323075.1,286047009.7,N
1711323095.9,286047011.2,N
1711323115.7,286047014.1,Y
1711323135.6,286047007.9,P
1711323155.4,286047007.0,P
1711323175.2,286047005.5,N
1711323195.1,286047004.3,N
1711323196.0,286047004.3,N
1711323215.8,286047000.5,N
1711323235.6,286047001.0,N
1711323255.5,286047002.5,N
1711323275.3,286047000.0,N
1711323295.2,286046998.2,N
1711323315.9,286047002.5,N
1711323335.7,286047007.5,N
1711323355.6,286047006.3,N
1711323375.4,286047006.6,N
1711323395.2,286047009.2,Y
1711323415.1,286047005.9,P
1711323416.0,286047005.9,P
1711323435.8,286046999.3,N
1711323455.7,286046998.1,N
1711323475.5,286047002.5,N
1711323495.3,286047001.2,N
1711323515.2,286046998.8,N
1711323535.0,286047000.2,N
1711323535.9,286047000.2,N
1711323555.7,286047002.5,N
1711323575.6,286047005.8,N
1711323595.4,286047005.0,N
1711323615.3,286047005.8,N
1711323635.1,286047005.9,N
1711323636.0,286047005.9,N
1711323655.8,286047004.4,N
1711323675.7,286047001.3,N
1711323695.5,286046998.5,N
1711323715.3,286046999.8,N
1711323735.2,286047002.7,N
1711323755.0,286046998.1,N
1711323755.9,286046998.1,N
1711323775.8,286047001.6,N
1711323795.6,286047003.7,N
1711323815.4,286047003.9,N
1711323835.3,286047004.5,N
1711323855.1,286047005.2,N
1711323875.8,286047008.0,N
1711323895.7,286047011.0,Y
1711323915.5,286047009.6,P
1711323935.4,286047009.6,N
1711323955.2,286047010.5,P
1711323975.0,286047008.7,N
1711323975.9,286047008.7,Y
1711323995.8,286047000.7,P
1711324015.6,286046999.9,N
1711324035.4,286047000.7,N
1711324055.3,286047006.0,N
1711324075.1,286047001.6,N
1711324095.9,286047002.9,N
1711324115.7,286047006.9,N
1711324135.5,286047006.1,N
1711324155.4,286047006.9,N
1711324175.2,286047009.1,Y
1711324195.1,286046999.9,P
1711324196.0,286046999.9,N
1711324215.8,286046995.0,N
1711324235.6,286046993.9,N
1711324255.5,286046995.8,N
1711324275.3,286046999.5,N
1711324295.1,286046994.9,N
1711324315.9,286046996.1,N
1711324335.7,286046999.1,N
1711324355.6,286046999.3,N
1711324375.4,286046999.3,N
1711324395.2,286047001.9,N
1711324415.1,286047002.6,N
1711324416.0,286047002.6,N
1711324435.8,286047001.2,N
1711324455.6,286046998.5,N
1711324475.5,286047000.6,N
1711324495.3,286046998.9,N
1711324515.2,286047000.9,N
1711324535.9,286047000.6,N
1711324555.7,286047002.2,N
1711324575.6,286047003.0,N
1711324595.4,286047002.5,N
1711324615.3,286047007.1,N
1711324635.1,286047004.7,N
1711324636.0,286047004.7,N
1711324655.8,286046999.9,N
1711324675.7,286047000.6,N
1711324695.5,286047002.7,N
1711324715.3,286046999.4,N
1711324735.2,286046995.3,N
1711324755.0,286046998.0,N
1711324755.9,286046998.0,N
1711324775.8,286046998.9,N
1711324795.6,286047000.5,N
